When you browse on this site, cookies collect data to enhance your experience and personalize the content and advertising you see.
Visit our Privacy Policy to learn more. By continuing to use the site, you agree to this use of cookies and data.
  • In Hungary
  • List of Countries
  • For 7 days
  • Water Temperature
  • Satellite Maps
  • Weather Map
  • News
  • Weather Widgets
  • user-avatar
    Login

    Hourly Weather Pingjiang

    Today, 19 April, Friday

    Time Temperature Precipitation Wind Pressure Humidity
    00:00 +23°C° 0 mm 1 mps 718 mmHg 96%
    01:00 +23°C° 0 mm 1 mps 718 mmHg 96%
    02:00 +24°C° 0.1 mm 1 mps 717 mmHg 96%
    03:00 +24°C° 0.1 mm 1 mps 717 mmHg 96%
    04:00 +24°C° 0.1 mm 1 mps 717 mmHg 96%
    05:00 +24°C° 0 mm 1 mps 717 mmHg 95%
    06:00 +25°C° 0 mm 1 mps 717 mmHg 94%
    07:00 +25°C° 0 mm 1 mps 718 mmHg 94%
    08:00 +27°C° 0.4 mm 1 mps 718 mmHg 87%
    09:00 +29°C° 0.4 mm 1 mps 718 mmHg 80%
    10:00 +30°C° 0.4 mm 1 mps 719 mmHg 73%
    11:00 +31°C° 0.6 mm 1 mps 718 mmHg 67%
    12:00 +32°C° 0.6 mm 2 mps 718 mmHg 62%
    13:00 +34°C° 0.6 mm 2 mps 717 mmHg 57%
    14:00 +34°C° 0.7 mm 2 mps 717 mmHg 59%
    15:00 +32°C° 0.7 mm 2 mps 717 mmHg 62%
    16:00 +32°C° 0.7 mm 2 mps 716 mmHg 64%
    17:00 +30°C° 1.5 mm 2 mps 716 mmHg 72%
    18:00 +28°C° 1.5 mm 1 mps 717 mmHg 80%
    19:00 +26°C° 1.5 mm 1 mps 717 mmHg 88%
    20:00 +25°C° 0.1 mm 1 mps 717 mmHg 90%
    21:00 +25°C° 0.1 mm 1 mps 718 mmHg 92%
    22:00 +25°C° 0.1 mm 1 mps 718 mmHg 93%
    23:00 +24°C° 0.1 mm 1 mps 718 mmHg 94%

    Tomorrow, 20 April, Saturday

    Time Temperature Precipitation Wind Pressure Humidity
    00:00 +24°C° 0.1 mm 1 mps 718 mmHg 95%
    01:00 +24°C° 0.1 mm 1 mps 718 mmHg 96%
    02:00 +24°C° 0.1 mm 1 mps 717 mmHg 97%
    03:00 +24°C° 0.1 mm 1 mps 717 mmHg 97%
    04:00 +24°C° 0.1 mm 1 mps 717 mmHg 98%
    05:00 +24°C° 0.2 mm 1 mps 717 mmHg 95%
    06:00 +25°C° 0.2 mm 1 mps 717 mmHg 93%
    07:00 +26°C° 0.2 mm 1 mps 717 mmHg 91%
    08:00 +26°C° 0.1 mm 1 mps 718 mmHg 91%
    09:00 +26°C° 0.1 mm 1 mps 718 mmHg 90%
    10:00 +26°C° 0.1 mm 1 mps 718 mmHg 90%
    11:00 +28°C° 0.1 mm 1 mps 718 mmHg 84%
    12:00 +29°C° 0.1 mm 2 mps 718 mmHg 77%
    13:00 +31°C° 0.1 mm 2 mps 718 mmHg 71%
    14:00 +31°C° 0.2 mm 2 mps 717 mmHg 71%
    15:00 +31°C° 0.2 mm 2 mps 717 mmHg 70%
    16:00 +31°C° 0.2 mm 3 mps 716 mmHg 70%
    17:00 +29°C° 0.1 mm 2 mps 716 mmHg 76%
    18:00 +28°C° 0.1 mm 1 mps 716 mmHg 83%
    19:00 +27°C° 0.1 mm 1 mps 717 mmHg 90%
    20:00 +26°C° 1.4 mm 1 mps 717 mmHg 92%
    21:00 +26°C° 1.4 mm 1 mps 717 mmHg 94%
    22:00 +25°C° 1.4 mm 1 mps 718 mmHg 96%
    23:00 +25°C° 2.3 mm 1 mps 718 mmHg 96%

    Day after tomorrow, 21 April, Sunday

    Time Temperature Precipitation Wind Pressure Humidity
    00:00 +25°C° 2.3 mm 1 mps 718 mmHg 96%
    01:00 +25°C° 2.3 mm 1 mps 718 mmHg 97%
    02:00 +24°C° 0.4 mm 1 mps 718 mmHg 97%
    03:00 +24°C° 0.4 mm 1 mps 718 mmHg 97%
    04:00 +24°C° 0.4 mm 1 mps 717 mmHg 97%
    05:00 +25°C° 0.6 mm 1 mps 718 mmHg 95%
    06:00 +25°C° 0.6 mm 1 mps 718 mmHg 94%
    07:00 +26°C° 0.6 mm 1 mps 719 mmHg 92%
    08:00 +25°C° 0.2 mm 0 mps 719 mmHg 88%
    09:00 +26°C° 0.2 mm 0 mps 720 mmHg 84%
    10:00 +27°C° 0.2 mm 0 mps 720 mmHg 79%
    11:00 +27°C° 0.1 mm 0 mps 720 mmHg 80%
    12:00 +27°C° 0.1 mm 0 mps 719 mmHg 81%
    13:00 +29°C° 0.1 mm 1 mps 719 mmHg 81%
    14:00 +28°C° 0.1 mm 0 mps 718 mmHg 79%
    15:00 +29°C° 0.1 mm 0 mps 718 mmHg 76%
    16:00 +29°C° 0.1 mm 0 mps 717 mmHg 73%
    17:00 +28°C° 0.1 mm 0 mps 718 mmHg 79%
    18:00 +29°C° 0.1 mm 1 mps 718 mmHg 85%
    19:00 +27°C° 0.1 mm 1 mps 718 mmHg 90%
    20:00 +27°C° 0 mm 1 mps 718 mmHg 92%
    21:00 +27°C° 0 mm 1 mps 719 mmHg 93%
    22:00 +26°C° 0 mm 1 mps 719 mmHg 95%
    23:00 +26°C° 1.5 mm 1 mps 719 mmHg 95%

    22 April, Monday

    Time Temperature Precipitation Wind Pressure Humidity
    00:00 +26°C° 1.5 mm 1 mps 719 mmHg 95%
    01:00 +26°C° 1.5 mm 1 mps 718 mmHg 95%
    02:00 +26°C° 3.7 mm 1 mps 718 mmHg 96%
    03:00 +25°C° 3.7 mm 1 mps 718 mmHg 96%
    04:00 +25°C° 3.7 mm 1 mps 718 mmHg 97%
    05:00 +25°C° 1.6 mm 1 mps 718 mmHg 95%
    06:00 +26°C° 1.6 mm 1 mps 719 mmHg 94%
    07:00 +26°C° 1.6 mm 1 mps 719 mmHg 92%
    08:00 +28°C° 0.1 mm 2 mps 720 mmHg 86%
    09:00 +29°C° 0.1 mm 2 mps 720 mmHg 81%
    10:00 +31°C° 0.1 mm 3 mps 720 mmHg 75%
    11:00 +31°C° 0.1 mm 3 mps 720 mmHg 75%
    12:00 +31°C° 0.1 mm 3 mps 719 mmHg 75%
    13:00 +31°C° 0.1 mm 3 mps 719 mmHg 75%
    14:00 +31°C° 0 mm 3 mps 718 mmHg 74%
    15:00 +31°C° 0 mm 3 mps 718 mmHg 74%
    16:00 +31°C° 0 mm 3 mps 717 mmHg 73%
    17:00 +30°C° 0 mm 2 mps 718 mmHg 79%
    18:00 +29°C° 0 mm 2 mps 718 mmHg 85%
    19:00 +28°C° 0 mm 1 mps 718 mmHg 90%
    20:00 +28°C° 0.6 mm 1 mps 719 mmHg 91%
    21:00 +27°C° 0.6 mm 1 mps 719 mmHg 92%
    22:00 +27°C° 0.6 mm 1 mps 720 mmHg 94%
    23:00 +27°C° 2.5 mm 1 mps 719 mmHg 94%

    23 April, Tuesday

    Time Temperature Precipitation Wind Pressure Humidity
    00:00 +26°C° 2.5 mm 1 mps 719 mmHg 95%
    01:00 +26°C° 2.5 mm 2 mps 719 mmHg 96%
    02:00 +26°C° 1.1 mm 1 mps 719 mmHg 96%
    03:00 +26°C° 1.1 mm 1 mps 719 mmHg 96%
    04:00 +25°C° 1.1 mm 1 mps 719 mmHg 97%
    05:00 +26°C° 0.1 mm 1 mps 719 mmHg 95%
    06:00 +26°C° 0.1 mm 1 mps 720 mmHg 94%
    07:00 +27°C° 0.1 mm 1 mps 720 mmHg 92%
    08:00 +28°C° 0.1 mm 2 mps 721 mmHg 88%
    09:00 +28°C° 0.1 mm 2 mps 721 mmHg 85%
    10:00 +29°C° 0.1 mm 3 mps 721 mmHg 81%
    11:00 +29°C° 0.1 mm 3 mps 721 mmHg 80%
    12:00 +30°C° 0.1 mm 3 mps 720 mmHg 79%
    13:00 +30°C° 0.1 mm 3 mps 720 mmHg 78%
    14:00 +30°C° 0.1 mm 2 mps 719 mmHg 78%
    15:00 +30°C° 0.1 mm 2 mps 719 mmHg 79%
    16:00 +30°C° 0.1 mm 2 mps 718 mmHg 80%
    17:00 +29°C° 0 mm 2 mps 719 mmHg 84%
    18:00 +28°C° 0 mm 1 mps 719 mmHg 89%
    19:00 +27°C° 0 mm 1 mps 719 mmHg 93%
    20:00 +27°C° 0 mm 1 mps 719 mmHg 94%
    21:00 +27°C° 0 mm 1 mps 719 mmHg 95%
    22:00 +26°C° 0 mm 1 mps 719 mmHg 95%
    23:00 +26°C° 0.1 mm 1 mps 719 mmHg 96%

    24 April, Wednesday

    Time Temperature Precipitation Wind Pressure Humidity
    00:00 +26°C° 0.1 mm 1 mps 719 mmHg 96%
    01:00 +26°C° 0.1 mm 1 mps 718 mmHg 96%
    02:00 +26°C° 0.6 mm 1 mps 718 mmHg 97%
    03:00 +26°C° 0.6 mm 1 mps 718 mmHg 97%
    04:00 +25°C° 0.6 mm 1 mps 718 mmHg 97%
    05:00 +26°C° 0.2 mm 1 mps 719 mmHg 94%
    06:00 +26°C° 0.2 mm 1 mps 719 mmHg 92%
    07:00 +27°C° 0.2 mm 1 mps 720 mmHg 89%
    08:00 +27°C° 0.1 mm 2 mps 720 mmHg 86%
    09:00 +28°C° 0.1 mm 2 mps 720 mmHg 83%
    10:00 +29°C° 0.1 mm 2 mps 721 mmHg 81%
    11:00 +30°C° 0.1 mm 2 mps 720 mmHg 78%
    12:00 +30°C° 0.1 mm 2 mps 720 mmHg 75%
    13:00 +31°C° 0.1 mm 2 mps 719 mmHg 72%
    14:00 +31°C° 0.1 mm 2 mps 719 mmHg 70%
    15:00 +33°C° 0.1 mm 3 mps 719 mmHg 69%
    16:00 +33°C° 0.1 mm 3 mps 718 mmHg 67%
    17:00 +31°C° 1.4 mm 2 mps 719 mmHg 74%
    18:00 +29°C° 1.4 mm 1 mps 719 mmHg 80%
    19:00 +25°C° 1.4 mm 0 mps 719 mmHg 87%
    20:00 +27°C° 0.1 mm 1 mps 720 mmHg 88%
    21:00 +27°C° 0.1 mm 1 mps 720 mmHg 89%
    22:00 +26°C° 0.1 mm 1 mps 721 mmHg 90%
    23:00 +24°C° 0 mm 0 mps 721 mmHg 90%
    Show more